"Date","Average Accumulated Water Year PPT (in)","Average SWE (in)"
10/01/1981,0.001,0.000
10/02/1981,0.248,0.000
10/03/1981,0.251,0.000
10/04/1981,0.251,0.000
10/05/1981,0.251,0.000
10/06/1981,0.268,0.000
10/07/1981,0.324,0.000
10/08/1981,0.324,0.000
10/09/1981,0.324,0.000
10/10/1981,0.325,0.000
10/11/1981,0.329,0.000
10/12/1981,0.333,0.000
10/13/1981,0.333,0.000
10/14/1981,0.333,0.000
10/15/1981,0.333,0.000
10/16/1981,0.333,0.000
10/17/1981,0.333,0.000
10/18/1981,0.341,0.000
10/19/1981,0.418,0.000
10/20/1981,0.420,0.000
10/21/1981,0.420,0.000
10/22/1981,0.420,0.000
10/23/1981,0.489,0.000
10/24/1981,0.799,0.000
10/25/1981,0.800,0.000
10/26/1981,1.197,0.000
10/27/1981,3.204,0.000
10/28/1981,4.009,0.000
10/29/1981,4.010,0.000
10/30/1981,4.010,0.000
10/31/1981,4.011,0.000
11/01/1981,4.012,0.000
11/02/1981,4.012,0.000
11/03/1981,4.012,0.000
11/04/1981,4.012,0.000
11/05/1981,4.012,0.000
11/06/1981,4.241,0.000
11/07/1981,4.242,0.000
11/08/1981,4.242,0.000
11/09/1981,4.242,0.000
11/10/1981,4.242,0.000
11/11/1981,4.242,0.000
11/12/1981,4.242,0.000
11/13/1981,4.242,0.000
11/14/1981,4.242,0.000
11/15/1981,4.242,0.000
11/16/1981,4.242,0.000
11/17/1981,4.245,0.000
11/18/1981,4.248,0.000
11/19/1981,4.248,0.000
11/20/1981,4.376,0.000
11/21/1981,4.380,0.000
11/22/1981,4.381,0.001
11/23/1981,4.381,0.001
11/24/1981,4.547,0.107
11/25/1981,4.771,0.250
11/26/1981,4.771,0.250
11/27/1981,4.771,0.147
11/28/1981,4.771,0.017
11/29/1981,4.771,0.016
11/30/1981,4.771,0.016
12/01/1981,4.792,0.021
12/02/1981,5.215,0.027
12/03/1981,5.252,0.015
12/04/1981,5.253,0.013
12/05/1981,5.353,0.020
12/06/1981,5.355,0.022
12/07/1981,5.355,0.022
12/08/1981,5.360,0.015
12/09/1981,5.373,0.024
12/10/1981,5.373,0.025
12/11/1981,5.373,0.025
12/12/1981,5.373,0.025
12/13/1981,5.373,0.025
12/14/1981,5.452,0.029
12/15/1981,6.027,0.159
12/16/1981,6.453,0.519
12/17/1981,6.491,0.525
12/18/1981,6.525,0.533
12/19/1981,6.526,0.534
12/20/1981,6.527,0.534
12/21/1981,6.541,0.541
12/22/1981,6.747,0.633
12/23/1981,6.868,0.454
12/24/1981,6.901,0.297
12/25/1981,6.925,0.267
12/26/1981,6.931,0.268
12/27/1981,6.931,0.268
12/28/1981,6.931,0.257
12/29/1981,6.931,0.227
12/30/1981,6.931,0.227
12/31/1981,6.931,0.227
01/01/1982,7.496,0.546
01/02/1982,7.496,0.512
01/03/1982,7.647,0.516
01/04/1982,8.294,0.485
01/05/1982,8.302,0.414
01/06/1982,8.303,0.401
01/07/1982,8.310,0.347
01/08/1982,8.311,0.331
01/09/1982,8.311,0.331
01/10/1982,8.315,0.334
01/11/1982,8.315,0.334
01/12/1982,8.315,0.334
01/13/1982,8.384,0.389
01/14/1982,8.716,0.679
01/15/1982,8.778,0.732
01/16/1982,8.783,0.736
01/17/1982,8.784,0.736
01/18/1982,8.784,0.736
01/19/1982,8.796,0.738
01/20/1982,8.853,0.748
01/21/1982,9.255,0.694
01/22/1982,9.258,0.695
01/23/1982,9.765,1.061
01/24/1982,9.789,1.045
01/25/1982,9.790,1.045
01/26/1982,9.816,1.066
01/27/1982,9.816,1.066
01/28/1982,9.816,1.066
01/29/1982,9.816,1.000
01/30/1982,9.816,0.968
01/31/1982,9.816,0.766
02/01/1982,10.002,0.536
02/02/1982,10.002,0.534
02/03/1982,10.674,0.643
02/04/1982,11.123,0.563
02/05/1982,11.123,0.534
02/06/1982,11.123,0.513
02/07/1982,11.123,0.513
02/08/1982,11.123,0.513
02/09/1982,11.599,0.571
02/10/1982,11.619,0.579
02/11/1982,11.619,0.579
02/12/1982,11.619,0.579
02/13/1982,11.764,0.720
02/14/1982,11.765,0.722
02/15/1982,11.765,0.654
02/16/1982,11.863,0.542
02/17/1982,12.390,0.473
02/18/1982,13.210,0.699
02/19/1982,13.447,0.755
02/20/1982,13.449,0.677
02/21/1982,13.459,0.599
02/22/1982,13.460,0.577
02/23/1982,13.460,0.571
02/24/1982,13.460,0.510
02/25/1982,13.460,0.491
02/26/1982,13.460,0.491
02/27/1982,13.470,0.503
02/28/1982,13.921,0.901
03/01/1982,13.921,0.850
03/02/1982,13.921,0.699
03/03/1982,13.930,0.520
03/04/1982,13.933,0.520
03/05/1982,13.940,0.509
03/06/1982,13.940,0.473
03/07/1982,14.363,0.500
03/08/1982,14.828,0.724
03/09/1982,14.828,0.723
03/10/1982,14.828,0.635
03/11/1982,14.828,0.530
03/12/1982,15.091,0.427
03/13/1982,15.095,0.309
03/14/1982,15.124,0.233
03/15/1982,15.311,0.225
03/16/1982,15.523,0.234
03/17/1982,15.865,0.208
03/18/1982,15.867,0.153
03/19/1982,15.885,0.124
03/20/1982,17.041,0.090
03/21/1982,17.468,0.077
03/22/1982,17.472,0.062
03/23/1982,17.472,0.062
03/24/1982,17.472,0.059
03/25/1982,17.472,0.046
03/26/1982,17.706,0.035
03/27/1982,17.708,0.037
03/28/1982,17.708,0.037
03/29/1982,17.708,0.037
03/30/1982,17.708,0.032
03/31/1982,17.710,0.019
04/01/1982,17.932,0.011
04/02/1982,17.932,0.007
04/03/1982,18.102,0.003
04/04/1982,18.268,0.001
04/05/1982,18.268,0.001
04/06/1982,18.386,0.001
04/07/1982,18.386,0.001
04/08/1982,18.386,0.001
04/09/1982,18.549,0.026
04/10/1982,18.550,0.018
04/11/1982,18.550,0.010
04/12/1982,18.550,0.009
04/13/1982,18.550,0.001
04/14/1982,18.550,0.000
04/15/1982,18.550,0.000
04/16/1982,18.550,0.000
04/17/1982,18.552,0.000
04/18/1982,18.983,0.000
04/19/1982,18.983,0.000
04/20/1982,18.991,0.000
04/21/1982,19.000,0.000
04/22/1982,19.000,0.000
04/23/1982,19.000,0.000
04/24/1982,19.000,0.000
04/25/1982,19.000,0.000
04/26/1982,19.842,0.000
04/27/1982,20.156,0.000
04/28/1982,20.623,0.000
04/29/1982,20.623,0.000
04/30/1982,20.623,0.000
05/01/1982,20.623,0.000
05/02/1982,20.624,0.000
05/03/1982,20.624,0.000
05/04/1982,20.624,0.000
05/05/1982,20.624,0.000
05/06/1982,20.624,0.000
05/07/1982,20.624,0.000
05/08/1982,20.683,0.000
05/09/1982,20.730,0.000
05/10/1982,20.730,0.000
05/11/1982,20.730,0.000
05/12/1982,20.730,0.000
05/13/1982,20.730,0.000
05/14/1982,20.743,0.000
05/15/1982,20.743,0.000
05/16/1982,20.743,0.000
05/17/1982,20.743,0.000
05/18/1982,20.743,0.000
05/19/1982,20.743,0.000
05/20/1982,20.969,0.000
05/21/1982,21.116,0.000
05/22/1982,21.332,0.000
05/23/1982,21.836,0.000
05/24/1982,21.929,0.000
05/25/1982,22.050,0.000
05/26/1982,22.178,0.000
05/27/1982,22.296,0.000
05/28/1982,22.627,0.000
05/29/1982,22.708,0.000
05/30/1982,23.203,0.000
05/31/1982,23.291,0.000
06/01/1982,23.420,0.000
06/02/1982,23.583,0.000
06/03/1982,23.587,0.000
06/04/1982,24.368,0.000
06/05/1982,25.326,0.000
06/06/1982,25.382,0.000
06/07/1982,25.436,0.000
06/08/1982,25.437,0.000
06/09/1982,25.479,0.000
06/10/1982,26.188,0.000
06/11/1982,26.418,0.000
06/12/1982,26.464,0.000
06/13/1982,28.406,0.000
06/14/1982,28.693,0.000
06/15/1982,28.693,0.000
06/16/1982,28.694,0.000
06/17/1982,29.037,0.000
06/18/1982,29.165,0.000
06/19/1982,29.165,0.000
06/20/1982,29.166,0.000
06/21/1982,29.166,0.000
06/22/1982,29.166,0.000
06/23/1982,29.182,0.000
06/24/1982,29.182,0.000
06/25/1982,29.182,0.000
06/26/1982,29.275,0.000
06/27/1982,29.304,0.000
06/28/1982,29.304,0.000
06/29/1982,29.334,0.000
06/30/1982,29.502,0.000
07/01/1982,29.601,0.000
07/02/1982,29.603,0.000
07/03/1982,29.633,0.000
07/04/1982,29.902,0.000
07/05/1982,30.304,0.000
07/06/1982,30.331,0.000
07/07/1982,30.337,0.000
07/08/1982,30.353,0.000
07/09/1982,30.546,0.000
07/10/1982,30.836,0.000
07/11/1982,31.034,0.000
07/12/1982,31.418,0.000
07/13/1982,31.462,0.000
07/14/1982,31.474,0.000
07/15/1982,31.527,0.000
07/16/1982,31.690,0.000
07/17/1982,31.750,0.000
07/18/1982,31.814,0.000
07/19/1982,31.933,0.000
07/20/1982,32.116,0.000
07/21/1982,32.144,0.000
07/22/1982,32.144,0.000
07/23/1982,32.560,0.000
07/24/1982,33.047,0.000
07/25/1982,33.047,0.000
07/26/1982,33.047,0.000
07/27/1982,33.047,0.000
07/28/1982,33.048,0.000
07/29/1982,33.185,0.000
07/30/1982,33.607,0.000
07/31/1982,34.169,0.000
08/01/1982,34.190,0.000
08/02/1982,34.190,0.000
08/03/1982,34.343,0.000
08/04/1982,34.343,0.000
08/05/1982,34.346,0.000
08/06/1982,34.725,0.000
08/07/1982,35.657,0.000
08/08/1982,36.042,0.000
08/09/1982,36.435,0.000
08/10/1982,36.529,0.000
08/11/1982,36.529,0.000
08/12/1982,36.848,0.000
08/13/1982,36.848,0.000
08/14/1982,36.849,0.000
08/15/1982,36.897,0.000
08/16/1982,37.154,0.000
08/17/1982,37.287,0.000
08/18/1982,37.516,0.000
08/19/1982,37.516,0.000
08/20/1982,37.516,0.000
08/21/1982,37.718,0.000
08/22/1982,37.719,0.000
08/23/1982,37.719,0.000
08/24/1982,37.772,0.000
08/25/1982,37.783,0.000
08/26/1982,37.784,0.000
08/27/1982,37.785,0.000
08/28/1982,37.901,0.000
08/29/1982,37.901,0.000
08/30/1982,37.901,0.000
08/31/1982,37.916,0.000
09/01/1982,37.933,0.000
09/02/1982,37.988,0.000
09/03/1982,38.099,0.000
09/04/1982,38.100,0.000
09/05/1982,38.100,0.000
09/06/1982,38.100,0.000
09/07/1982,38.100,0.000
09/08/1982,38.104,0.000
09/09/1982,38.157,0.000
09/10/1982,38.157,0.000
09/11/1982,38.157,0.000
09/12/1982,38.157,0.000
09/13/1982,38.157,0.000
09/14/1982,38.157,0.000
09/15/1982,38.161,0.000
09/16/1982,38.168,0.000
09/17/1982,38.168,0.000
09/18/1982,38.171,0.000
09/19/1982,38.180,0.000
09/20/1982,38.333,0.000
09/21/1982,38.390,0.000
09/22/1982,38.856,0.000
09/23/1982,38.926,0.000
09/24/1982,38.926,0.000
09/25/1982,38.926,0.000
09/26/1982,39.113,0.000
09/27/1982,40.410,0.000
09/28/1982,40.412,0.000
09/29/1982,40.412,0.000
09/30/1982,40.415,0.000
10/01/1982,0.000,0.000
10/02/1982,0.000,0.000
10/03/1982,0.000,0.000
10/04/1982,0.000,0.000
10/05/1982,0.012,0.000
10/06/1982,0.303,0.000
10/07/1982,0.307,0.000
10/08/1982,0.307,0.000
10/09/1982,0.338,0.000
10/10/1982,0.597,0.000
10/11/1982,0.673,0.000
10/12/1982,0.720,0.000
10/13/1982,1.049,0.000
10/14/1982,1.375,0.000
10/15/1982,1.375,0.000
10/16/1982,1.422,0.000
10/17/1982,1.423,0.000
10/18/1982,1.424,0.000
10/19/1982,1.424,0.000
10/20/1982,1.425,0.000
10/21/1982,1.500,0.000
10/22/1982,1.500,0.000
10/23/1982,1.500,0.000
10/24/1982,1.500,0.000
10/25/1982,2.008,0.004
10/26/1982,2.504,0.004
10/27/1982,2.504,0.001
10/28/1982,2.504,0.000
10/29/1982,2.504,0.000
10/30/1982,2.504,0.000
10/31/1982,2.504,0.000
11/01/1982,2.504,0.000
11/02/1982,2.504,0.000
11/03/1982,2.511,0.000
11/04/1982,2.924,0.000
11/05/1982,3.759,0.000
11/06/1982,3.760,0.000
11/07/1982,3.760,0.000
11/08/1982,3.760,0.000
11/09/1982,3.760,0.000
11/10/1982,3.760,0.000
11/11/1982,3.760,0.000
11/12/1982,3.760,0.000
11/13/1982,4.122,0.000
11/14/1982,4.122,0.000
11/15/1982,4.123,0.000
11/16/1982,4.123,0.000
11/17/1982,4.123,0.000
11/18/1982,4.123,0.000
11/19/1982,4.123,0.000
11/20/1982,4.241,0.000
11/21/1982,4.411,0.000
11/22/1982,4.451,0.000
11/23/1982,4.536,0.000
11/24/1982,4.551,0.000
11/25/1982,4.551,0.000
11/26/1982,4.551,0.000
11/27/1982,4.556,0.000
11/28/1982,4.652,0.003
11/29/1982,5.986,0.001
11/30/1982,5.989,0.000
12/01/1982,6.346,0.000
12/02/1982,6.569,0.000
12/03/1982,6.576,0.000
12/04/1982,6.578,0.000
12/05/1982,6.578,0.000
12/06/1982,6.631,0.000
12/07/1982,6.631,0.000
12/08/1982,6.631,0.000
12/09/1982,6.631,0.000
12/10/1982,6.631,0.000
12/11/1982,6.647,0.003
12/12/1982,7.204,0.442
12/13/1982,7.206,0.443
12/14/1982,7.206,0.443
12/15/1982,7.299,0.457
12/16/1982,8.038,0.163
12/17/1982,8.038,0.081
12/18/1982,8.038,0.081
12/19/1982,8.046,0.087
12/20/1982,8.150,0.200
12/21/1982,8.150,0.193
12/22/1982,8.150,0.193
12/23/1982,8.157,0.177
12/24/1982,8.158,0.081
12/25/1982,8.160,0.029
12/26/1982,8.161,0.001
12/27/1982,8.207,0.000
12/28/1982,8.225,0.000
12/29/1982,8.227,0.000
12/30/1982,8.228,0.000
12/31/1982,8.228,0.000
01/01/1983,8.228,0.000
01/02/1983,8.228,0.000
01/03/1983,8.231,0.000
01/04/1983,8.232,0.001
01/05/1983,8.232,0.001
01/06/1983,8.238,0.003
01/07/1983,8.238,0.001
01/08/1983,8.238,0.000
01/09/1983,8.251,0.005
01/10/1983,8.459,0.024
01/11/1983,8.633,0.012
01/12/1983,8.633,0.011
01/13/1983,8.633,0.011
01/14/1983,8.633,0.011
01/15/1983,8.641,0.016
01/16/1983,8.644,0.018
01/17/1983,8.644,0.018
01/18/1983,8.654,0.024
01/19/1983,8.654,0.024
01/20/1983,8.654,0.024
01/21/1983,8.654,0.024
01/22/1983,8.715,0.073
01/23/1983,8.994,0.115
01/24/1983,9.237,0.106
01/25/1983,9.237,0.095
01/26/1983,9.237,0.093
01/27/1983,9.237,0.091
01/28/1983,9.237,0.088
01/29/1983,9.237,0.088
01/30/1983,9.237,0.076
01/31/1983,9.253,0.060
02/01/1983,9.253,0.050
02/02/1983,9.441,0.046
02/03/1983,10.339,0.032
02/04/1983,10.339,0.033
02/05/1983,10.339,0.033
02/06/1983,10.402,0.081
02/07/1983,10.708,0.359
02/08/1983,10.711,0.350
02/09/1983,10.711,0.350
02/10/1983,10.711,0.350
02/11/1983,11.381,0.977
02/12/1983,12.164,1.670
02/13/1983,12.164,1.670
02/14/1983,12.164,1.670
02/15/1983,12.164,1.670
02/16/1983,12.164,1.450
02/17/1983,12.164,1.293
02/18/1983,12.164,0.884
02/19/1983,12.164,0.713
02/20/1983,12.164,0.573
02/21/1983,12.164,0.453
02/22/1983,12.164,0.259
02/23/1983,12.261,0.097
02/24/1983,12.332,0.092
02/25/1983,12.421,0.098
02/26/1983,12.515,0.156
02/27/1983,12.515,0.156
02/28/1983,12.515,0.136
03/01/1983,12.532,0.101
03/02/1983,12.557,0.084
03/03/1983,12.557,0.053
03/04/1983,12.557,0.024
03/05/1983,12.557,0.005
03/06/1983,12.565,0.000
03/07/1983,12.776,0.000
03/08/1983,13.141,0.000
03/09/1983,13.451,0.000
03/10/1983,13.546,0.000
03/11/1983,13.552,0.000
03/12/1983,13.552,0.000
03/13/1983,13.552,0.000
03/14/1983,13.552,0.000
03/15/1983,13.553,0.000
03/16/1983,13.553,0.000
03/17/1983,13.553,0.000
03/18/1983,14.199,0.002
03/19/1983,15.388,0.000
03/20/1983,15.388,0.000
03/21/1983,15.770,0.000
03/22/1983,15.785,0.002
03/23/1983,15.785,0.002
03/24/1983,15.785,0.002
03/25/1983,15.785,0.002
03/26/1983,15.785,0.002
03/27/1983,15.923,0.011
03/28/1983,16.515,0.010
03/29/1983,16.517,0.008
03/30/1983,16.517,0.008
03/31/1983,16.566,0.009
04/01/1983,16.605,0.010
04/02/1983,16.698,0.003
04/03/1983,17.950,0.001
04/04/1983,17.951,0.001
04/05/1983,17.951,0.000
04/06/1983,17.969,0.000
04/07/1983,18.156,0.000
04/08/1983,18.421,0.000
04/09/1983,18.535,0.000
04/10/1983,19.785,0.000
04/11/1983,19.899,0.000
04/12/1983,19.899,0.000
04/13/1983,19.899,0.000
04/14/1983,19.899,0.000
04/15/1983,20.279,0.000
04/16/1983,21.048,0.000
04/17/1983,21.048,0.000
04/18/1983,21.048,0.000
04/19/1983,21.048,0.000
04/20/1983,21.048,0.000
04/21/1983,21.048,0.000
04/22/1983,21.048,0.000
04/23/1983,21.210,0.000
04/24/1983,22.937,0.000
04/25/1983,23.210,0.000
04/26/1983,23.210,0.000
04/27/1983,23.210,0.000
04/28/1983,23.210,0.000
04/29/1983,23.210,0.000
04/30/1983,23.210,0.000
05/01/1983,23.212,0.000
05/02/1983,23.212,0.000
05/03/1983,23.224,0.000
05/04/1983,23.370,0.000
05/05/1983,23.370,0.000
05/06/1983,23.370,0.000
05/07/1983,23.370,0.000
05/08/1983,23.371,0.000
05/09/1983,23.500,0.000
05/10/1983,23.500,0.000
05/11/1983,23.500,0.000
05/12/1983,23.500,0.000
05/13/1983,23.500,0.000
05/14/1983,23.500,0.000
05/15/1983,23.760,0.000
05/16/1983,24.577,0.000
05/17/1983,25.941,0.000
05/18/1983,25.941,0.000
05/19/1983,25.941,0.000
05/20/1983,26.147,0.000
05/21/1983,26.152,0.000
05/22/1983,26.831,0.000
05/23/1983,27.114,0.000
05/24/1983,27.118,0.000
05/25/1983,27.118,0.000
05/26/1983,27.159,0.000
05/27/1983,27.186,0.000
05/28/1983,27.186,0.000
05/29/1983,27.541,0.000
05/30/1983,27.685,0.000
05/31/1983,27.703,0.000
06/01/1983,27.738,0.000
06/02/1983,27.758,0.000
06/03/1983,27.778,0.000
06/04/1983,28.217,0.000
06/05/1983,28.221,0.000
06/06/1983,28.221,0.000
06/07/1983,28.385,0.000
06/08/1983,28.388,0.000
06/09/1983,28.388,0.000
06/10/1983,28.388,0.000
06/11/1983,28.388,0.000
06/12/1983,28.388,0.000
06/13/1983,28.388,0.000
06/14/1983,28.438,0.000
06/15/1983,28.705,0.000
06/16/1983,28.783,0.000
06/17/1983,28.802,0.000
06/18/1983,28.943,0.000
06/19/1983,29.479,0.000
06/20/1983,29.590,0.000
06/21/1983,29.977,0.000
06/22/1983,30.743,0.000
06/23/1983,30.751,0.000
06/24/1983,30.751,0.000
06/25/1983,30.751,0.000
06/26/1983,30.751,0.000
06/27/1983,30.756,0.000
06/28/1983,30.761,0.000
06/29/1983,30.931,0.000
06/30/1983,31.185,0.000
07/01/1983,31.204,0.000
07/02/1983,31.312,0.000
07/03/1983,31.361,0.000
07/04/1983,31.630,0.000
07/05/1983,31.684,0.000
07/06/1983,31.789,0.000
07/07/1983,31.789,0.000
07/08/1983,31.789,0.000
07/09/1983,31.789,0.000
07/10/1983,31.789,0.000
07/11/1983,31.789,0.000
07/12/1983,31.789,0.000
07/13/1983,31.789,0.000
07/14/1983,31.789,0.000
07/15/1983,31.789,0.000
07/16/1983,31.789,0.000
07/17/1983,31.789,0.000
07/18/1983,31.801,0.000
07/19/1983,31.823,0.000
07/20/1983,31.876,0.000
07/21/1983,32.018,0.000
07/22/1983,32.420,0.000
07/23/1983,32.439,0.000
07/24/1983,32.674,0.000
07/25/1983,32.686,0.000
07/26/1983,32.719,0.000
07/27/1983,32.719,0.000
07/28/1983,32.719,0.000
07/29/1983,32.719,0.000
07/30/1983,32.719,0.000
07/31/1983,32.719,0.000
08/01/1983,32.719,0.000
08/02/1983,32.834,0.000
08/03/1983,32.844,0.000
08/04/1983,32.957,0.000
08/05/1983,33.007,0.000
08/06/1983,33.474,0.000
08/07/1983,33.517,0.000
08/08/1983,33.518,0.000
08/09/1983,33.518,0.000
08/10/1983,33.746,0.000
08/11/1983,33.747,0.000
08/12/1983,34.253,0.000
08/13/1983,34.253,0.000
08/14/1983,34.253,0.000
08/15/1983,34.253,0.000
08/16/1983,34.253,0.000
08/17/1983,34.253,0.000
08/18/1983,34.375,0.000
08/19/1983,34.378,0.000
08/20/1983,34.379,0.000
08/21/1983,34.379,0.000
08/22/1983,34.380,0.000
08/23/1983,34.399,0.000
08/24/1983,34.686,0.000
08/25/1983,34.694,0.000
08/26/1983,34.694,0.000
08/27/1983,34.711,0.000
08/28/1983,34.736,0.000
08/29/1983,34.976,0.000
08/30/1983,34.976,0.000
08/31/1983,34.976,0.000
09/01/1983,35.225,0.000
09/02/1983,35.225,0.000
09/03/1983,35.225,0.000
09/04/1983,35.225,0.000
09/05/1983,35.225,0.000
09/06/1983,35.225,0.000
09/07/1983,35.226,0.000
09/08/1983,35.226,0.000
09/09/1983,35.226,0.000
09/10/1983,35.226,0.000
09/11/1983,35.226,0.000
09/12/1983,35.226,0.000
09/13/1983,35.370,0.000
09/14/1983,36.077,0.000
09/15/1983,36.077,0.000
09/16/1983,36.077,0.000
09/17/1983,36.077,0.000
09/18/1983,36.077,0.000
09/19/1983,36.077,0.000
09/20/1983,36.077,0.000
09/21/1983,36.150,0.000
09/22/1983,36.511,0.000
09/23/1983,36.511,0.000
09/24/1983,36.511,0.000
09/25/1983,36.511,0.000
09/26/1983,36.511,0.000
09/27/1983,36.511,0.000
09/28/1983,36.511,0.000
09/29/1983,36.511,0.000
09/30/1983,36.710,0.000
10/01/1983,0.797,0.000
10/02/1983,0.819,0.000
10/03/1983,0.819,0.000
10/04/1983,0.819,0.000
10/05/1983,0.820,0.000
10/06/1983,0.823,0.000
10/07/1983,0.823,0.000
10/08/1983,0.823,0.000
10/09/1983,0.823,0.000
10/10/1983,0.826,0.000
10/11/1983,0.844,0.000
10/12/1983,1.976,0.000
10/13/1983,2.065,0.000
10/14/1983,2.631,0.000
10/15/1983,2.631,0.000
10/16/1983,2.631,0.000
10/17/1983,2.631,0.000
10/18/1983,2.631,0.000
10/19/1983,2.649,0.000
10/20/1983,2.758,0.000
10/21/1983,4.022,0.000
10/22/1983,4.143,0.000
10/23/1983,5.035,0.000
10/24/1983,6.088,0.000
10/25/1983,6.192,0.000
10/26/1983,6.210,0.000
10/27/1983,6.215,0.000
10/28/1983,6.215,0.000
10/29/1983,6.215,0.000
10/30/1983,6.215,0.000
10/31/1983,6.215,0.000
11/01/1983,6.215,0.000
11/02/1983,6.215,0.000
11/03/1983,6.241,0.000
11/04/1983,6.301,0.000
11/05/1983,6.301,0.000
11/06/1983,6.330,0.003
11/07/1983,6.330,0.002
11/08/1983,6.330,0.000
11/09/1983,6.330,0.000
11/10/1983,6.806,0.000
11/11/1983,7.478,0.000
11/12/1983,7.479,0.001
11/13/1983,7.479,0.001
11/14/1983,7.479,0.001
11/15/1983,7.630,0.006
11/16/1983,7.878,0.007
11/17/1983,7.881,0.007
11/18/1983,7.881,0.007
11/19/1983,7.881,0.003
11/20/1983,7.881,0.000
11/21/1983,8.462,0.000
11/22/1983,8.462,0.000
11/23/1983,8.462,0.000
11/24/1983,8.673,0.000
11/25/1983,9.928,0.049
11/26/1983,9.928,0.050
11/27/1983,9.935,0.038
11/28/1983,10.027,0.022
11/29/1983,10.171,0.013
11/30/1983,10.181,0.014
12/01/1983,10.181,0.014
12/02/1983,10.181,0.014
12/03/1983,10.214,0.019
12/04/1983,11.308,0.020
12/05/1983,11.318,0.015
12/06/1983,11.470,0.010
12/07/1983,11.604,0.015
12/08/1983,11.604,0.015
12/09/1983,11.604,0.015
12/10/1983,11.620,0.016
12/11/1983,11.622,0.013
12/12/1983,12.564,0.011
12/13/1983,13.357,0.009
12/14/1983,13.378,0.008
12/15/1983,13.379,0.007
12/16/1983,13.379,0.006
12/17/1983,13.379,0.006
12/18/1983,13.379,0.006
12/19/1983,13.379,0.006
12/20/1983,13.380,0.006
12/21/1983,13.383,0.010
12/22/1983,14.630,0.628
12/23/1983,14.649,0.628
12/24/1983,14.649,0.628
12/25/1983,14.649,0.628
12/26/1983,14.649,0.628
12/27/1983,14.649,0.628
12/28/1983,14.819,0.655
12/29/1983,15.519,0.694
12/30/1983,15.519,0.694
12/31/1983,15.519,0.694
01/01/1984,15.519,0.694
01/02/1984,15.519,0.694
01/03/1984,15.519,0.694
01/04/1984,15.519,0.687
01/05/1984,15.521,0.665
01/06/1984,15.521,0.633
01/07/1984,15.521,0.603
01/08/1984,15.521,0.603
01/09/1984,15.521,0.590
01/10/1984,15.521,0.560
01/11/1984,16.156,0.885
01/12/1984,16.156,0.885
01/13/1984,16.185,0.902
01/14/1984,16.239,0.926
01/15/1984,16.239,0.926
01/16/1984,16.243,0.932
01/17/1984,16.276,0.955
01/18/1984,16.373,1.088
01/19/1984,16.644,1.419
01/20/1984,16.644,1.419
01/21/1984,16.644,1.419
01/22/1984,16.644,1.419
01/23/1984,16.644,1.419
01/24/1984,16.764,1.455
01/25/1984,16.802,1.085
01/26/1984,16.802,0.990
01/27/1984,16.802,0.877
01/28/1984,16.802,0.809
01/29/1984,16.808,0.806
01/30/1984,16.813,0.810
01/31/1984,16.868,0.861
02/01/1984,16.868,0.861
02/02/1984,16.868,0.861
02/03/1984,16.868,0.784
02/04/1984,16.972,0.685
02/05/1984,17.192,0.712
02/06/1984,17.205,0.716
02/07/1984,17.206,0.717
02/08/1984,17.206,0.717
02/09/1984,17.206,0.717
02/10/1984,17.206,0.617
02/11/1984,17.259,0.481
02/12/1984,17.312,0.408
02/13/1984,17.346,0.280
02/14/1984,19.234,0.184
02/15/1984,20.133,0.138
02/16/1984,20.135,0.107
02/17/1984,20.135,0.075
02/18/1984,20.152,0.048
02/19/1984,20.152,0.030
02/20/1984,20.185,0.019
02/21/1984,20.185,0.019
02/22/1984,20.185,0.019
02/23/1984,20.201,0.017
02/24/1984,21.530,0.071
02/25/1984,21.552,0.051
02/26/1984,21.552,0.051
02/27/1984,21.554,0.054
02/28/1984,21.947,0.211
02/29/1984,22.064,0.284
03/01/1984,22.067,0.287
03/02/1984,22.067,0.287
03/03/1984,22.067,0.287
03/04/1984,22.067,0.287
03/05/1984,22.098,0.282
03/06/1984,22.236,0.145
03/07/1984,22.284,0.152
03/08/1984,22.284,0.153
03/09/1984,22.453,0.271
03/10/1984,22.453,0.271
03/11/1984,22.453,0.271
03/12/1984,22.453,0.271
03/13/1984,22.961,0.578
03/14/1984,23.250,0.476
03/15/1984,23.250,0.377
03/16/1984,23.250,0.158
03/17/1984,23.250,0.093
03/18/1984,23.263,0.077
03/19/1984,23.263,0.061
03/20/1984,23.263,0.041
03/21/1984,24.125,0.022
03/22/1984,24.315,0.026
03/23/1984,24.315,0.026
03/24/1984,24.315,0.026
03/25/1984,24.547,0.022
03/26/1984,24.905,0.019
03/27/1984,24.905,0.016
03/28/1984,25.297,0.014
03/29/1984,27.500,0.385
03/30/1984,27.518,0.368
03/31/1984,27.520,0.336
04/01/1984,27.520,0.294
04/02/1984,27.520,0.250
04/03/1984,27.520,0.180
04/04/1984,27.595,0.111
04/05/1984,28.866,0.063
04/06/1984,28.873,0.029
04/07/1984,28.877,0.027
04/08/1984,28.877,0.025
04/09/1984,28.877,0.017
04/10/1984,28.877,0.015
04/11/1984,28.877,0.013
04/12/1984,28.877,0.009
04/13/1984,28.877,0.004
04/14/1984,29.227,0.001
04/15/1984,30.239,0.000
04/16/1984,30.750,0.000
04/17/1984,30.806,0.000
04/18/1984,30.845,0.000
04/19/1984,30.898,0.000
04/20/1984,30.922,0.000
04/21/1984,30.922,0.000
04/22/1984,31.146,0.000
04/23/1984,32.229,0.011
04/24/1984,32.262,0.002
04/25/1984,32.262,0.001
04/26/1984,32.262,0.000
04/27/1984,32.262,0.000
04/28/1984,32.264,0.000
04/29/1984,32.841,0.000
04/30/1984,32.875,0.000
05/01/1984,32.896,0.000
05/02/1984,32.897,0.000
05/03/1984,32.962,0.000
05/04/1984,33.786,0.000
05/05/1984,33.901,0.000
05/06/1984,34.143,0.000
05/07/1984,34.628,0.000
05/08/1984,34.726,0.000
05/09/1984,34.844,0.000
05/10/1984,34.844,0.000
05/11/1984,34.848,0.000
05/12/1984,34.849,0.000
05/13/1984,34.852,0.000
05/14/1984,34.852,0.000
05/15/1984,34.852,0.000
05/16/1984,34.852,0.000
05/17/1984,34.852,0.000
05/18/1984,34.852,0.000
05/19/1984,34.852,0.000
05/20/1984,34.852,0.000
05/21/1984,34.852,0.000
05/22/1984,34.852,0.000
05/23/1984,34.892,0.000
05/24/1984,35.169,0.000
05/25/1984,35.169,0.000
05/26/1984,35.174,0.000
05/27/1984,35.338,0.000
05/28/1984,35.549,0.000
05/29/1984,35.833,0.000
05/30/1984,35.951,0.000
05/31/1984,35.951,0.000
06/01/1984,35.951,0.000
06/02/1984,35.965,0.000
06/03/1984,35.965,0.000
06/04/1984,35.965,0.000
06/05/1984,35.971,0.000
06/06/1984,35.999,0.000
06/07/1984,35.999,0.000
06/08/1984,36.001,0.000
06/09/1984,36.001,0.000
06/10/1984,36.002,0.000
06/11/1984,36.018,0.000
06/12/1984,36.073,0.000
06/13/1984,36.121,0.000
06/14/1984,36.267,0.000
06/15/1984,36.267,0.000
06/16/1984,36.267,0.000
06/17/1984,36.275,0.000
06/18/1984,36.508,0.000
06/19/1984,36.525,0.000
06/20/1984,36.525,0.000
06/21/1984,36.529,0.000
06/22/1984,36.535,0.000
06/23/1984,36.547,0.000
06/24/1984,36.586,0.000
06/25/1984,37.031,0.000
06/26/1984,37.034,0.000
06/27/1984,37.034,0.000
06/28/1984,37.034,0.000
06/29/1984,37.120,0.000
06/30/1984,37.326,0.000
07/01/1984,38.640,0.000
07/02/1984,38.716,0.000
07/03/1984,38.796,0.000
07/04/1984,38.807,0.000
07/05/1984,38.871,0.000